Location: Ferchesar
(52.6477°N, 12.4298°E)
Time: 08:03:26
(UTC+01:00)

Transit 2A - Visible Passes

Search period start: 07 December 2021 00:00
Search period end: 17 December 2021 00:00
Orbit: 591 x 967 km, 66.7° (Epoch: 06 December)

Date Brightness Start Highest point End Pass type
(mag) Time Alt. Az. Time Alt. Az. Time Alt. Az.
07 Dec 8.7 03:18:02 18° NNE 03:18:02 18° NNE 03:20:09 10° NE visible
07 Dec 7.9 04:58:31 22° N 05:00:23 25° NNE 05:05:36 10° ENE visible
07 Dec 7.1 06:39:00 11° NW 06:45:07 50° NE 06:51:13 10° ESE visible
08 Dec 9.0 02:44:49 13° NE 02:44:49 13° NE 02:45:41 10° NE visible
08 Dec 8.0 04:25:18 24° N 04:25:46 24° N 04:30:50 10° ENE visible
08 Dec 7.4 06:05:47 15° NNW 06:10:41 42° NE 06:16:38 10° ESE visible
09 Dec 8.3 03:52:05 22° NNE 03:52:05 22° NNE 03:56:06 10° NE visible
09 Dec 7.6 05:32:35 21° NNW 05:36:12 36° NNE 05:41:59 10° E visible
09 Dec 6.5 07:13:44 10° NW 07:20:11 84° SW 07:26:23 10° SE visible
10 Dec 8.6 03:18:54 18° NNE 03:18:54 18° NNE 03:21:26 10° NE visible
10 Dec 7.8 04:59:24 25° N 05:01:41 31° NNE 05:07:17 10° E visible
10 Dec 6.6 06:39:53 12° NW 06:45:56 78° NE 06:52:09 10° SE visible
11 Dec 9.0 02:45:44 14° NE 02:45:44 14° NE 02:46:49 10° NE visible
11 Dec 7.9 04:26:14 27° N 04:27:08 28° NNE 04:32:32 10° ENE visible
11 Dec 6.8 06:06:44 18° NW 06:11:36 63° NE 06:17:47 10° SE visible
12 Dec 8.1 03:53:06 25° NNE 03:53:06 25° NNE 03:57:46 10° ENE visible
12 Dec 7.1 05:33:36 25° NNW 05:37:14 52° NE 05:43:19 10° ESE visible
12 Dec 6.8 07:14:28 10° NW 07:20:36 49° WSW 07:26:27 10° S visible
13 Dec 8.5 03:20:01 20° NE 03:20:01 20° NE 03:23:00 10° ENE visible
13 Dec 7.3 05:00:31 32° N 05:02:48 43° NE 05:08:45 10° ESE visible
13 Dec 6.5 06:41:00 14° NW 06:46:28 64° WSW 06:52:30 10° SSE visible
14 Dec 9.0 02:46:57 15° NE 02:46:57 15° NE 02:48:16 10° ENE visible
14 Dec 7.5 04:27:27 35° NNE 04:28:20 37° NNE 04:34:08 10° E visible
14 Dec 6.4 06:07:58 22° NW 06:12:16 81° SW 06:18:25 10° SSE visible
15 Dec 7.9 03:54:28 31° NE 03:54:28 31° NE 03:59:25 10° E visible
15 Dec 6.5 05:34:58 34° NW 05:38:01 81° NE 05:44:12 10° SE visible
15 Dec 7.5 07:15:31 10° NW 07:20:43 27° WSW 07:25:42 10° SSW visible
16 Dec 8.4 03:21:32 23° NE 03:21:32 23° NE 03:24:41 10° E visible
16 Dec 6.7 05:02:02 48° NNW 05:03:42 66° NE 05:09:51 10° SE visible
16 Dec 7.1 06:42:33 17° WNW 06:46:42 36° WSW 06:52:10 10° S visible
